Change the Weather History Date:

Tuesday, October 15, 2013

  Actual Average (KGVT) Record (KGVT)
Temperature  
Mean Temperature 66 °F -  
Max Temperature 76 °F 75 °F 91 °F (1999)
Min Temperature 57 °F 55 °F 41 °F (2003)
Cooling Degree Days 2    
Growing Degree Days 16 (Base 50)    
Moisture  
Dew Point 66 °F    
Average Humidity 92    
Maximum Humidity 96    
Minimum Humidity 86    
Precipitation  
Precipitation 1.55 in - - ()
Sea Level Pressure  
Sea Level Pressure 29.99 in    
Wind  
Wind Speed 9 mph (SW)    
Max Wind Speed 18 mph    
Max Gust Speed 20 mph    
Visibility 7 miles    
Events Rain    
Averages and records for this station are not official NWS values.
T = Trace of Precipitation, MM = Missing Value Source: NWS Daily Summary

Daily Weather History Graph

Daily Weather History Graph

Search for Another Location

Airport or City:

Trip Planner

Search our weather history database for the weather conditions in past years. The results will help you decide how hot, cold, wet, or windy it might be!

Date:

Astronomy

Oct. 15, 2013 Rise Set
Actual Time 7:27 AM CDT 6:48 PM CDT
Civil Twilight 7:02 AM CDT 7:13 PM CDT
Nautical Twilight 6:33 AM CDT 7:42 PM CDT
Astronomical Twilight 6:04 AM CDT 8:11 PM CDT
Moon 4:46 PM CDT (10/15) 4:00 AM CDT (10/15)
Length of Visible Light 12h 11m
Length of Day
11h 21m
Waxing Gibbous, 88% of the Moon is Illuminated
Oct 15
Waxing Gibbous
Oct 18
Full
Oct 26
Last Quarter
Nov 3
New
Nov 9
First Quarter

Hourly Weather History & Observations

Time (CDT) Temp. Dew Point Humidity Pressure Visibility Wind Dir Wind Speed Gust Speed Precip Events Conditions
12:15 AM 72.0 °F 69.3 °F 91% 29.99 in 10.0 mi SSE 8.1 mph - N/A   Mostly Cloudy
12:35 AM 72.1 °F 68.9 °F 89% 29.99 in 10.0 mi SSE 9.2 mph - N/A   Overcast
12:55 AM 72.1 °F 68.9 °F 89% 29.98 in 10.0 mi SSE 8.1 mph - N/A   Mostly Cloudy
1:15 AM 72.3 °F 68.7 °F 88% 29.97 in 10.0 mi SSE 8.1 mph - N/A   Mostly Cloudy
1:35 AM 72.5 °F 68.9 °F 88% 29.98 in 10.0 mi South 8.1 mph - N/A   Overcast
1:55 AM 72.7 °F 68.9 °F 88% 29.99 in 10.0 mi South 5.8 mph - N/A   Overcast
2:35 AM 72.9 °F 69.3 °F 88% 29.99 in 10.0 mi South 6.9 mph - N/A   Mostly Cloudy
2:55 AM 72.9 °F 69.4 °F 89% 29.98 in 10.0 mi South 8.1 mph - N/A   Mostly Cloudy
3:15 AM 72.7 °F 69.4 °F 90% 29.98 in 10.0 mi South 8.1 mph - N/A   Overcast
3:35 AM 72.9 °F 69.4 °F 89% 29.97 in 10.0 mi South 8.1 mph - N/A   Mostly Cloudy
3:55 AM 72.7 °F 69.4 °F 90% 29.97 in 10.0 mi South 8.1 mph - N/A   Overcast
4:15 AM 72.5 °F 69.6 °F 91% 29.96 in 10.0 mi South 8.1 mph - N/A   Overcast
4:35 AM 72.5 °F 69.4 °F 90% 29.96 in 10.0 mi South 5.8 mph - N/A   Scattered Clouds
4:55 AM 72.5 °F 69.6 °F 91% 29.96 in 10.0 mi South 5.8 mph - N/A   Mostly Cloudy
5:15 AM 72.3 °F 69.6 °F 91% 29.96 in 10.0 mi South 6.9 mph - N/A   Scattered Clouds
5:35 AM 72.5 °F 69.4 °F 90% 29.96 in 10.0 mi SSW 8.1 mph - N/A   Mostly Cloudy
5:55 AM 72.5 °F 69.6 °F 91% 29.96 in 10.0 mi South 6.9 mph - N/A   Overcast
6:15 AM 72.9 °F 69.8 °F 90% 29.96 in 10.0 mi South 6.9 mph - N/A   Mostly Cloudy
6:35 AM 72.9 °F 69.8 °F 90% 29.96 in 10.0 mi South 8.1 mph - N/A   Overcast
6:55 AM 73.0 °F 69.8 °F 90% 29.97 in 10.0 mi SSW 9.2 mph - N/A   Overcast
7:15 AM 73.0 °F 69.8 °F 90% 29.97 in 10.0 mi SSW 6.9 mph - N/A   Overcast
7:35 AM 73.0 °F 69.8 °F 90% 29.97 in 10.0 mi South 9.2 mph - N/A   Mostly Cloudy
7:55 AM 73.2 °F 69.8 °F 89% 29.97 in 7.0 mi SSW 11.5 mph - N/A   Mostly Cloudy
8:15 AM 73.4 °F 69.8 °F 88% 29.98 in 7.0 mi SSW 10.4 mph - N/A   Mostly Cloudy
8:35 AM 73.4 °F 70.0 °F 89% 29.97 in 7.0 mi SSW 10.4 mph - N/A   Mostly Cloudy
8:55 AM 72.9 °F 70.2 °F 91% 29.98 in 3.0 mi SSW 9.2 mph - 0.04 in Rain Heavy Rain
9:15 AM 72.5 °F 70.5 °F 93% 29.99 in 3.0 mi SW 4.6 mph - 0.05 in Rain Light Rain
9:35 AM 72.5 °F 70.7 °F 94% 29.99 in 1.8 mi SW 5.8 mph - 0.12 in Rain Heavy Rain
9:55 AM 72.5 °F 70.9 °F 95% 29.99 in 2.0 mi South 3.5 mph - 0.20 in Rain Light Rain
10:15 AM 72.9 °F 71.2 °F 95% 29.99 in 4.0 mi South 6.9 mph - N/A Rain Light Rain
10:35 AM 73.9 °F 71.8 °F 93% 29.99 in 5.0 mi SSW 10.4 mph - N/A   Mostly Cloudy
10:55 AM 73.9 °F 71.1 °F 91% 29.99 in 5.0 mi SSW 9.2 mph - N/A   Mostly Cloudy
11:15 AM 73.6 °F 71.1 °F 92% 29.99 in 5.0 mi SSW 9.2 mph - N/A Rain Rain
11:35 AM 73.4 °F 70.9 °F 92% 29.99 in 4.0 mi SSW 10.4 mph - 0.01 in Rain Light Rain
11:55 AM 73.8 °F 71.6 °F 93% 29.98 in 5.0 mi SSW 9.2 mph - 0.01 in   Mostly Cloudy
12:15 PM 74.3 °F 71.6 °F 91% 29.98 in 5.0 mi SSW 11.5 mph - N/A   Mostly Cloudy
12:35 PM 75.6 °F 72.1 °F 89% 29.96 in 7.0 mi SSW 10.4 mph - N/A   Scattered Clouds
12:55 PM 76.1 °F 71.8 °F 86% 29.96 in 7.0 mi SSW 11.5 mph - N/A   Mostly Cloudy
1:15 PM 75.0 °F 71.1 °F 87% 29.95 in 4.0 mi SW 9.2 mph - 0.01 in Rain Rain
1:35 PM 69.8 °F 67.1 °F 91% 29.96 in 4.0 mi North 12.7 mph 19.6 mph 0.07 in Rain Heavy Rain
1:55 PM 68.9 °F 66.6 °F 92% 29.97 in 4.0 mi North 4.6 mph - 0.18 in Rain Heavy Rain
2:15 PM 68.7 °F 66.7 °F 93% 29.97 in 3.0 mi WNW 4.6 mph - 0.09 in Rain Heavy Rain
2:35 PM 68.4 °F 66.7 °F 95% 29.97 in 3.0 mi North 9.2 mph - 0.20 in Rain Heavy Rain
2:55 PM 67.8 °F 66.2 °F 95% 29.97 in 4.0 mi NNE 5.8 mph - 0.27 in Rain Heavy Rain
3:15 PM 68.0 °F 66.4 °F 95% 29.97 in 3.0 mi North 5.8 mph - 0.08 in Rain Heavy Rain
3:35 PM 67.6 °F 66.2 °F 95% 29.97 in 4.0 mi North 8.1 mph - 0.19 in Rain Rain
3:55 PM 67.6 °F 66.4 °F 96% 29.97 in 4.0 mi NNE 8.1 mph - 0.30 in Rain Rain
4:15 PM 66.4 °F 64.9 °F 95% 29.97 in 7.0 mi NNW 11.5 mph - 0.03 in Rain Rain
4:35 PM 65.5 °F 64.0 °F 95% 29.98 in 10.0 mi North 11.5 mph - 0.05 in Rain Light Rain
4:55 PM 65.1 °F 63.5 °F 94% 29.99 in 7.0 mi North 15.0 mph - 0.07 in Rain Heavy Rain
5:15 PM 64.9 °F 63.1 °F 94% 29.99 in 7.0 mi North 16.1 mph - 0.01 in Rain Rain
5:35 PM 64.4 °F 62.8 °F 94% 29.98 in 7.0 mi North 10.4 mph - 0.02 in Rain Rain
5:55 PM 64.2 °F 62.6 °F 94% 29.98 in 10.0 mi North 11.5 mph - 0.04 in Rain Light Rain
6:15 PM 63.5 °F 61.7 °F 94% 29.98 in 10.0 mi North 15.0 mph - 0.02 in Rain Rain
6:35 PM 62.6 °F 60.8 °F 94% 29.99 in 7.0 mi North 18.4 mph - 0.04 in Rain Rain
6:55 PM 61.9 °F 60.3 °F 94% 29.99 in 10.0 mi North 13.8 mph - 0.04 in Rain Rain
7:15 PM 61.3 °F 59.7 °F 94% 30.00 in 10.0 mi North 13.8 mph 17.3 mph 0.01 in Rain Rain
7:55 PM 59.9 °F 58.3 °F 94% 30.01 in 10.0 mi North 12.7 mph - 0.03 in   Drizzle
8:15 PM 59.9 °F 58.1 °F 94% 30.01 in 10.0 mi North 11.5 mph - N/A   Light Drizzle
8:35 PM 59.0 °F 57.4 °F 94% 30.02 in 7.0 mi North 13.8 mph - 0.02 in Rain Light Rain
8:55 PM 58.5 °F 56.8 °F 94% 30.03 in 7.0 mi North 12.7 mph 16.1 mph 0.04 in Rain Rain
9:15 PM 58.1 °F 56.3 °F 94% 30.04 in 7.0 mi NNW 12.7 mph 16.1 mph 0.02 in Rain Rain
9:35 PM 57.6 °F 55.9 °F 94% 30.05 in 5.0 mi NNW 11.5 mph - 0.06 in Rain Heavy Rain
9:55 PM 57.2 °F 55.6 °F 94% 30.07 in 5.0 mi NNW 12.7 mph - 0.14 in Rain Heavy Rain
10:15 PM 57.2 °F 55.8 °F 95% 30.07 in 5.0 mi NNW 10.4 mph - 0.07 in Rain Heavy Rain
10:35 PM 57.4 °F 55.9 °F 95% 30.06 in 7.0 mi North 11.5 mph - 0.12 in Rain Rain
10:55 PM 57.4 °F 55.9 °F 95% 30.05 in 10.0 mi North 6.9 mph - 0.14 in Rain Light Rain
11:15 PM 57.2 °F 55.8 °F 95% 30.03 in 10.0 mi North 9.2 mph - 0.03 in Rain Rain
11:35 PM 57.2 °F 55.8 °F 95% 30.04 in 10.0 mi North 10.4 mph - 0.04 in Rain Light Rain
11:55 PM 57.2 °F 55.6 °F 94% 30.04 in 10.0 mi North 12.7 mph - 0.05 in Rain Rain